CW9792 Weather Reports


Display with metric or nautical units.
time (UTC)temp
F
wind
direction
speed
MPH
gust
MPH
rain 1hr
in
rain 24hr
in
rain mn
in
humidity
%
barometer
mb
20260509184056 73 254 0.0 0.0 0.00 0.00 0.00 36 1009.4
20260509183556 73 283 0.0 1.0 0.00 0.00 0.00 38 1009.4
20260509183104 73 153 0.0 1.0 0.00 0.00 0.00 40 1009.4
20260509182553 72 315 0.0 0.0 0.00 0.00 0.00 41 1009.4
20260509182053 72 295 0.0 0.0 0.00 0.00 0.00 39 1009.5
20260509181553 72 248 0.0 0.0 0.00 0.00 0.00 40 1009.6
20260509181053 72 252 0.0 0.0 0.00 0.00 0.00 40 1009.5
20260509180555 72 360 0.0 0.0 0.00 0.00 0.00 39 1009.6
20260509180051 71 288 0.0 0.0 0.00 0.00 0.00 39 1009.6
20260509175550 71 295 0.0 1.0 0.00 0.00 0.00 40 1009.6
20260509175053 71 289 0.0 1.0 0.00 0.00 0.00 41 1009.6
20260509174552 71 294 0.0 0.0 0.00 0.00 0.00 44 1009.6
20260509174049 71 254 0.0 0.0 0.00 0.00 0.00 42 1009.6
20260509173548 71 252 0.0 0.0 0.00 0.00 0.00 43 1009.6
20260509173054 71 222 0.0 1.0 0.00 0.00 0.00 43 1009.7
20260509172547 70 337 0.0 1.0 0.00 0.00 0.00 43 1009.6
20260509172046 70 261 0.0 0.0 0.00 0.00 0.00 45 1009.7
20260509171547 70 257 0.0 0.0 0.00 0.00 0.00 46 1009.7
20260509171045 69 261 0.0 0.0 0.00 0.00 0.00 45 1009.8
20260509170545 69 278 0.0 0.0 0.00 0.00 0.00 46 1009.8
20260509170046 69 276 0.0 0.0 0.00 0.00 0.00 45 1009.7
20260509165545 69 294 0.0 0.0 0.00 0.00 0.00 46 1009.8
20260509165044 69 290 0.0 1.0 0.00 0.00 0.00 45 1009.8
20260509164544 69 294 0.0 1.0 0.00 0.00 0.00 48 1009.8
20260509164044 69 290 0.0 0.0 0.00 0.00 0.00 45 1009.9
20260509163543 69 245 0.0 1.0 0.00 0.00 0.00 45 1009.8
20260509163048 68 302 0.0 0.0 0.00 0.00 0.00 48 1009.8
20260509162541 68 288 0.0 0.0 0.00 0.00 0.00 50 1009.7
20260509162043 67 287 0.0 0.0 0.00 0.00 0.00 49 1009.6
20260509161544 67 293 0.0 0.0 0.00 0.00 0.00 50 1009.6
20260509161039 66 296 0.0 0.0 0.00 0.00 0.00 50 1009.6
20260509160539 66 291 0.0 1.0 0.00 0.00 0.00 51 1009.6
20260509160041 66 221 0.0 1.0 0.00 0.00 0.00 51 1009.5
20260509155539 66 329 0.0 0.0 0.00 0.00 0.00 52 1009.3
20260509155037 65 242 0.0 0.0 0.00 0.00 0.00 52 1009.4
20260509154537 66 261 0.0 1.0 0.00 0.00 0.00 52 1009.4
20260509154036 66 303 0.0 1.0 0.00 0.00 0.00 53 1009.4
20260509153537 66 257 0.0 0.0 0.00 0.00 0.00 53 1009.5
20260509153047 66 294 0.0 0.0 0.00 0.00 0.00 52 1009.4
20260509152535 65 252 0.0 0.0 0.00 0.00 0.00 55 1009.3
20260509152035 65 227 0.0 0.0 0.00 0.00 0.00 54 1009.3
20260509151539 64 252 0.0 0.0 0.00 0.00 0.00 55 1009.3
20260509151035 64 210 0.0 4.0 0.00 0.00 0.00 55 1009.2
20260509150536 64 237 0.0 4.0 0.00 0.00 0.00 55 1009.3
20260509150040 64 256 0.0 1.0 0.00 0.00 0.00 57 1009.3
20260509145534 63 213 0.0 1.0 0.00 0.00 0.00 57 1009.2
20260509145030 63 273 0.0 0.0 0.00 0.00 0.00 57 1009.2
20260509144531 63 242 0.0 0.0 0.00 0.00 0.00 57 1009.1
20260509144029 62 248 0.0 0.0 0.00 0.00 0.00 56 1009.2
20260509143528 62 232 0.0 0.0 0.00 0.00 0.00 58 1009.1
20260509143029 62 271 0.0 0.0 0.00 0.00 0.00 58 1009.2
20260509142527 61 240 0.0 0.0 0.00 0.00 0.00 59 1009.2
20260509142027 61 248 0.0 0.0 0.00 0.00 0.00 58 1009.1
20260509141527 61 233 0.0 0.0 0.00 0.00 0.00 59 1009.1
20260509141027 61 221 0.0 0.0 0.00 0.00 0.00 59 1009.2
20260509140526 61 213 0.0 0.0 0.00 0.00 0.00 60 1009.1
20260509140033 60 193 0.0 0.0 0.00 0.00 0.00 59 1009.1
20260509135529 60 219 0.0 0.0 0.00 0.00 0.00 60 1009.1
20260509135025 60 221 0.0 0.0 0.00 0.00 0.00 60 1009.0
20260509134524 59 233 0.0 0.0 0.00 0.00 0.00 61 1009.0
20260509134024 59 240 0.0 0.0 0.00 0.00 0.00 60 1009.1
20260509133524 59 246 0.0 0.0 0.00 0.00 0.00 61 1009.1
20260509133024 59 222 0.0 0.0 0.00 0.00 0.00 60 1009.0
20260509132524 59 206 0.0 0.0 0.00 0.00 0.00 61 1009.0
20260509132023 59 244 0.0 0.0 0.00 0.00 0.00 61 1009.0
20260509131525 58 207 0.0 0.0 0.00 0.00 0.00 61 1009.0
20260509131023 58 213 0.0 0.0 0.00 0.00 0.00 61 1008.9
20260509130524 58 236 0.0 0.0 0.00 0.00 0.00 62 1008.9
20260509130023 58 209 0.0 0.0 0.00 0.00 0.00 62 1009.0
20260509125526 57 218 0.0 0.0 0.00 0.00 0.00 62 1009.0
20260509125023 57 240 0.0 0.0 0.00 0.00 0.00 62 1008.9
20260509124523 57 238 0.0 0.0 0.00 0.00 0.00 62 1008.8
20260509124021 57 236 0.0 0.0 0.00 0.00 0.00 61 1008.9
20260509123521 57 202 0.0 0.0 0.00 0.00 0.00 61 1008.8
20260509123022 57 229 0.0 0.0 0.00 0.00 0.00 61 1008.7
20260509122521 57 242 0.0 0.0 0.00 0.00 0.00 61 1008.6
20260509122023 57 243 0.0 0.0 0.00 0.00 0.00 61 1008.5
20260509121521 57 221 0.0 0.0 0.00 0.00 0.00 61 1008.4
20260509121021 57 206 0.0 0.0 0.00 0.00 0.00 61 1008.5
20260509120521 57 198 0.0 0.0 0.00 0.00 0.00 61 1008.4
20260509120025 57 198 0.0 0.0 0.00 0.00 0.00 60 1008.5
20260509115521 57 198 0.0 0.0 0.00 0.00 0.00 60 1008.4
20260509115019 57 198 0.0 0.0 0.00 0.00 0.00 60 1008.5
20260509114521 57 198 0.0 0.0 0.00 0.00 0.00 60 1008.4
20260509114020 57 198 0.0 0.0 0.00 0.00 0.00 60 1008.3
20260509113519 57 198 0.0 0.0 0.00 0.00 0.00 60 1008.1
20260509113019 57 219 0.0 0.0 0.00 0.00 0.00 60 1008.2
20260509112518 57 227 0.0 0.0 0.00 0.00 0.00 60 1008.1
20260509112018 57 240 0.0 0.0 0.00 0.00 0.00 59 1007.8
20260509111518 57 246 0.0 0.0 0.00 0.00 0.00 59 1007.9
20260509111019 57 234 0.0 0.0 0.00 0.00 0.00 59 1007.8
20260509110518 57 243 0.0 1.0 0.00 0.00 0.00 59 1007.8
20260509110017 58 257 0.0 1.0 0.00 0.00 0.00 58 1008.0
20260509105517 58 232 0.0 0.0 0.00 0.00 0.00 58 1007.8
20260509105018 58 223 0.0 0.0 0.00 0.00 0.00 57 1007.7
20260509104517 58 288 0.0 0.0 0.00 0.00 0.00 58 1008.1
20260509104016 57 244 0.0 0.0 0.00 0.00 0.00 59 1007.7
20260509103516 57 219 0.0 0.0 0.00 0.00 0.00 58 1007.2
20260509103015 57 188 0.0 0.0 0.00 0.00 0.00 58 1006.8
20260509102514 58 188 0.0 0.0 0.00 0.00 0.00 57 1006.8
20260509102015 58 189 0.0 0.0 0.00 0.00 0.00 57 1006.9
20260509101513 58 207 0.0 0.0 0.00 0.00 0.00 57 1006.9
20260509101015 58 219 0.0 0.0 0.00 0.00 0.00 56 1007.2
20260509100511 58 207 0.0 0.0 0.00 0.00 0.00 56 1007.2
20260509100010 59 209 0.0 0.0 0.00 0.00 0.00 56 1007.4
20260509095515 59 203 0.0 0.0 0.00 0.00 0.00 55 1007.5
20260509095007 59 217 0.0 0.0 0.00 0.00 0.00 55 1007.7
20260509094505 59 228 0.0 0.0 0.00 0.00 0.00 55 1007.9
20260509094004 59 238 0.0 0.0 0.00 0.00 0.00 55 1008.0
20260509093504 59 236 0.0 0.0 0.00 0.00 0.00 55 1008.0
20260509093006 59 218 0.0 0.0 0.00 0.00 0.00 54 1008.1
20260509092503 59 202 0.0 0.0 0.00 0.00 0.00 54 1008.0
20260509092004 59 221 0.0 0.0 0.00 0.00 0.00 53 1008.0
20260509091504 59 248 0.0 0.0 0.00 0.00 0.00 53 1008.1
20260509091002 60 229 0.0 0.0 0.00 0.00 0.00 53 1008.3
20260509090502 60 231 0.0 0.0 0.00 0.00 0.00 53 1008.2
20260509090001 60 227 0.0 0.0 0.00 0.00 0.00 52 1008.2
20260509085502 60 219 0.0 0.0 0.00 0.00 0.00 52 1008.3
20260509085100 60 229 0.0 0.0 0.00 0.00 0.00 52 1008.3
20260509084606 60 240 0.0 0.0 0.00 0.00 0.00 52 1008.2
20260509084104 60 234 0.0 0.0 0.00 0.00 0.00 51 1008.3
20260509083559 60 222 0.0 0.0 0.00 0.00 0.00 51 1008.3
20260509083102 60 236 0.0 0.0 0.00 0.00 0.00 52 1008.2
20260509082559 60 228 0.0 0.0 0.00 0.00 0.00 52 1008.0
20260509082059 60 209 0.0 0.0 0.00 0.00 0.00 51 1008.0
20260509081559 60 217 0.0 0.0 0.00 0.00 0.00 51 1008.0
20260509081059 60 191 0.0 0.0 0.00 0.00 0.00 50 1008.0
20260509080559 60 192 0.0 0.0 0.00 0.00 0.00 50 1008.0
20260509080100 60 215 0.0 0.0 0.00 0.00 0.00 50 1008.2
20260509075557 60 190 0.0 0.0 0.00 0.00 0.00 50 1008.1
20260509075057 60 190 0.0 0.0 0.00 0.00 0.00 49 1008.0
20260509074607 60 206 0.0 0.0 0.00 0.00 0.00 49 1008.1
20260509074055 60 198 0.0 0.0 0.00 0.00 0.00 49 1008.2
20260509073557 60 195 0.0 0.0 0.00 0.00 0.00 48 1008.1
20260509073054 60 195 0.0 0.0 0.00 0.00 0.00 48 1008.3
20260509072556 60 201 0.0 0.0 0.00 0.00 0.00 48 1008.3
20260509072052 60 219 0.0 0.0 0.00 0.00 0.00 47 1008.4
20260509071607 60 214 0.0 0.0 0.00 0.00 0.00 47 1008.4
20260509071052 60 216 0.0 0.0 0.00 0.00 0.00 47 1008.4
20260509070551 60 219 0.0 0.0 0.00 0.00 0.00 46 1008.5
20260509070151 60 217 0.0 0.0 0.00 0.00 0.00 46 1008.5
20260509065551 60 204 0.0 0.0 0.00 0.00 0.00 46 1008.5
20260509065048 60 221 0.0 0.0 0.00 0.00 0.00 46 1008.6
20260509064548 61 221 0.0 0.0 0.00 0.00 0.00 45 1008.7
20260509064048 61 211 0.0 0.0 0.00 0.00 0.00 44 1008.6
20260509063548 61 229 0.0 0.0 0.00 0.00 0.00 44 1008.6
20260509063047 61 208 0.0 0.0 0.00 0.00 0.00 43 1008.6
20260509062546 61 208 0.0 0.0 0.00 0.00 0.00 43 1008.8
20260509062045 61 238 0.0 0.0 0.00 0.00 0.00 42 1008.9
20260509061553 61 211 0.0 0.0 0.00 0.00 0.00 42 1009.0
20260509061044 61 208 0.0 0.0 0.00 0.00 0.00 42 1009.0
20260509060545 61 220 0.0 0.0 0.00 0.00 0.00 42 1009.0
20260509060045 61 207 0.0 0.0 0.00 0.00 0.00 42 1009.0
20260509055544 61 202 0.0 0.0 0.00 0.00 0.00 42 1009.0
20260509055043 61 188 0.0 0.0 0.00 0.00 0.00 43 1009.0
20260509054558 61 194 0.0 0.0 0.00 0.00 0.00 42 1009.1
20260509054042 61 186 0.0 0.0 0.00 0.00 0.00 41 1009.1
20260509053542 62 183 0.0 0.0 0.00 0.00 0.00 41 1009.1
20260509053044 62 189 0.0 0.0 0.00 0.00 0.00 40 1009.2
20260509052541 62 213 0.0 0.0 0.00 0.00 0.00 40 1009.1
20260509052042 62 205 0.0 0.0 0.00 0.00 0.00 40 1009.1
20260509051543 61 200 0.0 0.0 0.00 0.00 0.00 40 1009.1
20260509051044 61 185 0.0 0.0 0.00 0.00 0.00 41 1009.0
20260509050541 61 189 0.0 0.0 0.00 0.00 0.00 41 1009.0
20260509050051 61 178 0.0 0.0 0.00 0.00 0.00 42 1009.0
20260509045540 61 180 0.0 0.0 0.00 0.00 0.00 42 1009.1
20260509045041 61 180 0.0 0.0 0.00 0.00 0.00 41 1009.0
20260509044540 61 180 0.0 0.0 0.00 0.00 0.00 41 1008.9
20260509044039 62 179 0.0 0.0 0.00 0.00 0.00 41 1008.9
20260509043541 62 178 0.0 0.0 0.00 0.00 0.00 41 1009.1
20260509043045 62 190 0.0 0.0 0.00 0.00 0.00 41 1009.0
20260509042537 61 194 0.0 0.0 0.00 0.00 0.00 41 1009.0
20260509042038 61 191 0.0 0.0 0.00 0.00 0.00 41 1009.1
20260509041537 61 191 0.0 0.0 0.00 0.00 0.00 41 1009.1
20260509041035 61 178 0.0 0.0 0.00 0.00 0.00 42 1009.1
20260509040538 61 175 0.0 0.0 0.00 0.00 0.00 42 1009.2
20260509040035 61 175 0.0 0.0 0.00 0.00 0.00 42 1009.2
20260509035535 61 175 0.0 0.0 0.00 0.00 0.00 42 1009.2
20260509035036 61 173 0.0 0.0 0.00 0.00 0.00 43 1009.2
20260509034534 61 173 0.0 0.0 0.00 0.00 0.00 43 1009.2
20260509034033 61 167 0.0 0.0 0.00 0.00 0.00 43 1009.3
20260509033534 61 167 0.0 0.0 0.00 0.00 0.00 43 1009.3
20260509033034 60 175 0.0 0.0 0.00 0.00 0.00 43 1009.4
20260509032531 60 170 0.0 0.0 0.00 0.00 0.00 44 1009.4
20260509032031 60 173 0.0 0.0 0.00 0.00 0.00 44 1009.4
20260509031534 60 175 0.0 0.0 0.00 0.00 0.00 44 1009.5
20260509031031 60 175 0.0 0.0 0.00 0.00 0.00 44 1009.6
20260509030531 60 175 0.0 0.0 0.00 0.00 0.00 44 1009.6
20260509030036 60 175 0.0 0.0 0.00 0.00 0.00 44 1009.6
20260509025530 60 175 0.0 0.0 0.00 0.00 0.00 44 1009.7
20260509025030 60 175 0.0 0.0 0.00 0.00 0.00 44 1009.7
20260509024536 60 175 0.0 0.0 0.00 0.00 0.00 44 1009.7
20260509024029 60 174 0.0 0.0 0.00 0.00 0.00 45 1009.7
20260509023528 60 174 0.0 0.0 0.00 0.00 0.00 45 1009.7
20260509023032 60 174 0.0 0.0 0.00 0.00 0.00 44 1009.9
20260509022528 61 174 0.0 0.0 0.00 0.00 0.00 44 1009.9
20260509022028 61 174 0.0 0.0 0.00 0.00 0.00 44 1010.0
20260509021528 61 174 0.0 0.0 0.00 0.00 0.00 43 1010.0
20260509021027 61 180 0.0 0.0 0.00 0.00 0.00 43 1010.0
20260509020527 61 180 0.0 0.0 0.00 0.00 0.00 43 1010.0
20260509020027 61 196 0.0 0.0 0.00 0.00 0.00 43 1010.0
20260509015527 61 196 0.0 0.0 0.00 0.00 0.00 42 1010.0
20260509015027 61 196 0.0 0.0 0.00 0.00 0.00 43 1009.8
20260509014526 62 196 0.0 0.0 0.00 0.00 0.00 42 1009.8
20260509014025 62 196 0.0 0.0 0.00 0.00 0.00 41 1009.9
20260509013526 62 196 0.0 0.0 0.00 0.00 0.00 42 1009.8
20260509013034 62 196 0.0 0.0 0.00 0.00 0.00 41 1009.9
20260509012525 62 200 0.0 0.0 0.00 0.00 0.00 40 1010.0
20260509012025 63 201 0.0 0.0 0.00 0.00 0.00 40 1010.1
20260509011525 63 201 0.0 0.0 0.00 0.00 0.00 40 1010.0
20260509011027 63 200 0.0 0.0 0.00 0.00 0.00 40 1010.0
20260509010524 64 201 0.0 0.0 0.00 0.00 0.00 39 1009.9
20260509010027 64 201 0.0 0.0 0.00 0.00 0.00 38 1009.9
20260509005524 64 201 0.0 0.0 0.00 0.00 0.00 37 1009.9
20260509005023 65 201 0.0 0.0 0.00 0.00 0.00 37 1009.9
20260509004530 65 201 0.0 0.0 0.00 0.00 0.00 36 1010.0
20260509004023 65 212 0.0 0.0 0.00 0.00 0.00 36 1010.0
20260509003522 66 212 0.0 0.0 0.00 0.00 0.00 35 1010.0
20260509003022 66 214 0.0 0.0 0.00 0.00 0.00 35 1010.0
20260509002521 66 214 0.0 0.0 0.00 0.00 0.00 34 1010.1
20260509002026 66 214 0.0 0.0 0.00 0.00 0.00 33 1010.1
20260509001522 67 220 0.0 0.0 0.00 0.00 0.00 33 1010.2
20260509001021 67 223 0.0 0.0 0.00 0.00 0.00 32 1010.2
20260509000521 68 211 0.0 0.0 0.00 0.00 0.00 31 1010.2
20260509000021 68 214 0.0 0.0 0.00 0.00 0.00 31 1010.2
20260508235521 68 198 0.0 0.0 0.00 0.00 0.00 32 1010.2
20260508235020 68 198 0.0 0.0 0.00 0.00 0.00 31 1010.2
20260508234521 69 198 0.0 0.0 0.00 0.00 0.00 30 1010.2
20260508234020 69 198 0.0 0.0 0.00 0.00 0.00 31 1010.2
20260508233520 69 217 0.0 0.0 0.00 0.00 0.00 30 1010.1
20260508233020 69 214 0.0 0.0 0.00 0.00 0.00 30 1010.1
20260508232519 69 222 0.0 0.0 0.00 0.00 0.00 30 1010.1
20260508232018 69 183 0.0 0.0 0.00 0.00 0.00 30 1010.2
20260508231518 69 193 0.0 0.0 0.00 0.00 0.00 30 1010.3
20260508231017 69 186 0.0 0.0 0.00 0.00 0.00 29 1010.3
20260508230519 69 184 0.0 0.0 0.00 0.00 0.00 30 1010.4
20260508230016 69 207 0.0 0.0 0.00 0.00 0.00 29 1010.5
20260508225517 70 215 0.0 0.0 0.00 0.00 0.00 29 1010.5
20260508225017 70 200 0.0 0.0 0.00 0.00 0.00 29 1010.5
20260508224516 70 220 0.0 0.0 0.00 0.00 0.00 28 1010.5
20260508224017 70 227 0.0 0.0 0.00 0.00 0.00 28 1010.5
20260508223516 70 216 0.0 0.0 0.00 0.00 0.00 28 1010.6
20260508223023 70 205 0.0 0.0 0.00 0.00 0.00 29 1010.6
20260508222514 70 205 0.0 0.0 0.00 0.00 0.00 28 1010.6
20260508222014 70 232 0.0 0.0 0.00 0.00 0.00 29 1010.7
20260508221525 70 233 0.0 0.0 0.00 0.00 0.00 28 1010.6
20260508221014 70 227 0.0 0.0 0.00 0.00 0.00 27 1010.5
20260508220514 70 221 0.0 0.0 0.00 0.00 0.00 28 1010.5
20260508220023 70 201 0.0 0.0 0.00 0.00 0.00 28 1010.4
20260508215516 70 198 0.0 0.0 0.00 0.00 0.00 28 1010.4
20260508215012 70 246 0.0 0.0 0.00 0.00 0.00 28 1010.3
20260508214513 70 180 0.0 0.0 0.00 0.00 0.00 28 1010.4
20260508214013 70 198 0.0 7.0 0.00 0.00 0.00 27 1010.4
20260508213511 70 194 4.0 8.0 0.00 0.00 0.00 28 1010.4
20260508213017 70 181 0.0 0.0 0.00 0.00 0.00 27 1010.4
20260508212511 70 223 0.0 0.0 0.00 0.00 0.00 28 1010.5
20260508212017 70 210 0.0 0.0 0.00 0.00 0.00 28 1010.5
20260508211510 70 227 0.0 6.0 0.00 0.00 0.00 27 1010.6
20260508211012 71 211 0.0 7.0 0.00 0.00 0.00 30 1010.5
20260508210509 70 205 0.0 7.0 0.00 0.00 0.00 28 1010.6
20260508210009 70 219 5.0 16.0 0.00 0.00 0.00 27 1010.8
20260508205512 70 204 6.0 16.0 0.00 0.00 0.00 29 1010.9
20260508205009 70 228 5.0 9.0 0.00 0.00 0.00 29 1010.8
20260508204507 70 229 4.0 18.0 0.00 0.00 0.00 31 1011.0
20260508204005 70 215 9.0 18.0 0.00 0.00 0.00 29 1011.0
20260508203505 70 198 0.0 0.0 0.00 0.00 0.00 28 1011.1
20260508203010 70 235 0.0 1.0 0.00 0.00 0.00 28 1011.3
20260508202504 71 200 0.0 1.0 0.00 0.00 0.00 27 1011.3
20260508202003 71 169 0.0 1.0 0.00 0.00 0.00 28 1011.4
20260508201503 70 181 0.0 1.0 0.00 0.00 0.00 28 1011.5
20260508201002 71 184 0.0 0.0 0.00 0.00 0.00 28 1011.5
20260508200501 70 246 0.0 0.0 0.00 0.00 0.00 28 1011.8
20260508200001 70 186 0.0 0.0 0.00 0.00 0.00 29 1011.9
20260508195559 70 228 0.0 0.0 0.00 0.00 0.00 27 1012.0
20260508195059 71 202 0.0 0.0 0.00 0.00 0.00 30 1012.0
20260508194557 70 210 0.0 0.0 0.00 0.00 0.00 29 1012.0
20260508194055 70 197 0.0 0.0 0.00 0.00 0.00 29 1012.1
20260508193555 69 221 0.0 0.0 0.00 0.00 0.00 28 1012.2
20260508193057 69 244 0.0 0.0 0.00 0.00 0.00 27 1012.5
20260508192554 70 242 0.0 0.0 0.00 0.00 0.00 28 1012.5
20260508192054 70 209 0.0 0.0 0.00 0.00 0.00 27 1012.4
20260508191555 70 213 0.0 0.0 0.00 0.00 0.00 27 1012.6
20260508191052 69 196 0.0 0.0 0.00 0.00 0.00 28 1012.7
20260508190552 69 172 0.0 0.0 0.00 0.00 0.00 26 1012.8
20260508185552 69 239 0.0 0.0 0.00 0.00 0.00 28 1013.1
20260508185053 69 254 0.0 0.0 0.00 0.00 0.00 27 1013.0
20260508184551 70 250 0.0 0.0 0.00 0.00 0.00 28 1013.0